Location: Ku?niki
(51.4449°N, 17.8974°E)
Time: 01:24:12
(UTC+00:00)

Cosmos 2180 Rocket - Pass Details

Date: 18 September 2020
Orbit: 954 x 1004 km, 82.9° (Epoch: 23 October)

Event Time Altitude Azimuth Distance (km) Brightness Sun altitude
Exits shadow 20:05:56 71° 98° (E) 1,042 4.4 -27.6°
Maximum altitude 20:05:58 71° 96° (E) 1,042 4.4 -27.6°
Drops below altitude 10° 20:12:17 10° 13° (NNE) 2,769 7.2 -28.3°
Sets 20:14:50 0° 12° (NNE) 3,728 8.0 -28.6°
